Flag for Germany Weather past 2 weeks in Rietberg, North Rhine-Westphalia, Germany

46 °F

Rain. Partly cloudy.

Feels Like: 39 °F
Forecast: 42 / 51 °F
Wind: 17 mph from West

Location: Paderborn / Lippstadt

Current Time: Nov 30, 2015 at 6:14:54 PM

Latest Report: Nov 30, 2015 at 5:50 PM

Visibility: 5 mi

Pressure: 29.83 "Hg

Humidity: 93%

Dew point: 45 °F

Location of RietbergLocation

Historic Weather in Rietberg — Graph


Rietberg temperature yesterday

Maximum temperature yesterday: 50 °F (at 6:20 PM)
Minimum temperature yesterday: 37 °F (at 4:20 AM)
Average temperature yesterday: 44 °F

Past Weeks' High & Low Weather Summary

High57 °F (Nov 17, 1:20 PM)100% (Nov 15, 4:20 PM)30.24 "Hg (Nov 15, 4:20 PM)
Low30 °F (Nov 22, 9:50 PM)56% (Nov 24, 10:50 AM)29.36 "Hg (Nov 21, 5:20 AM)
Average42 °F83%29.82 "Hg
* Reported Nov 15 4:20 PM — Nov 30 4:50 PM, Rietberg, Weather by CustomWeather, © 2015

Note: Actual official high and low records may vary slightly from our data, if they occured in-between our weather recording intervals... More about our weather records


Rietberg weather history for previous 24 hours

Time TempWeatherWind HumidityBarometerVisibility
4:50 PM
Mon, Nov 30
48 °FLight rain. Partly cloudy.21 mph87%29.86 "Hg5 mi
4:20 PM48 °FLight rain. Partly cloudy.20 mph87%29.86 "Hg5 mi
3:50 PM46 °FLight rain. Broken clouds.21 mph87%29.86 "Hg5 mi
3:20 PM45 °FLight rain. Broken clouds.18 mph93%29.89 "Hg5 mi
2:50 PM43 °FLight rain. Partly sunny.10 mph93%29.89 "Hg5 mi
2:20 PM41 °FLight rain. Broken clouds.5 mph87%29.92 "Hg5 mi
1:50 PM41 °FPartly sunny.9 mph87%29.98 "Hg6 mi
1:20 PM41 °FLight rain. Partly sunny.12 mph87%30.01 "Hg5 mi
12:50 PM41 °FLight rain. Scattered clouds.20 mph70%30.01 "Hg5 mi
12:20 PM43 °FSprinkles. Passing clouds.13 mph66%30.04 "HgN/A
11:50 AM43 °FPassing clouds.14 mph71%30.04 "HgN/A
11:20 AM43 °FPassing clouds.12 mph66%30.04 "HgN/A
10:50 AM43 °FPassing clouds.10 mph66%30.04 "HgN/A
10:20 AM43 °FPassing clouds.9 mph61%30.07 "HgN/A
9:50 AM43 °FPassing clouds.12 mph61%30.07 "HgN/A
9:20 AM43 °FBroken clouds.13 mph57%30.04 "HgN/A
8:50 AM43 °FBroken clouds.14 mph57%30.04 "HgN/A
7:50 AM43 °FPassing clouds.14 mph66%30.01 "HgN/A
7:20 AM43 °FPassing clouds.13 mph71%29.98 "HgN/A
6:50 AM43 °FPassing clouds.14 mph66%29.98 "HgN/A
6:20 AM43 °FPassing clouds.13 mph71%29.95 "HgN/A
5:50 AM45 °FPassing clouds.17 mph61%29.95 "HgN/A
5:20 AM45 °FPassing clouds.14 mph66%29.92 "HgN/A
4:20 AM45 °FPassing clouds.15 mph71%29.89 "HgN/A
3:50 AM45 °FPassing clouds.16 mph71%29.89 "HgN/A
3:20 AM45 °FPassing clouds.14 mph76%29.86 "HgN/A
2:50 AM45 °FLight rain. Passing clouds.13 mph76%29.86 "HgN/A
2:20 AM46 °FLight rain. Passing clouds.18 mph71%29.83 "HgN/A
1:20 AM45 °FPassing clouds.16 mph81%29.80 "HgN/A
12:50 AM45 °FLight rain. Partly cloudy.12 mph87%29.80 "HgN/A
11:50 PM
Sun, Nov 29
45 °FRain. Partly cloudy.18 mph93%29.74 "HgN/A
11:20 PM45 °FHeavy rain. Passing clouds.17 mph93%29.74 "Hg5 mi
10:50 PM46 °FHeavy rain. Passing clouds.20 mph87%29.71 "Hg4 mi
9:50 PM50 °FRain. Partly cloudy.32 mph82%29.65 "HgN/A
9:20 PM50 °FPartly cloudy.31 mph76%29.65 "HgN/A
8:50 PM48 °FPartly cloudy.31 mph87%29.65 "HgN/A
8:20 PM48 °FPartly cloudy.26 mph82%29.68 "HgN/A
7:50 PM48 °FPartly cloudy.26 mph82%29.68 "HgN/A
7:20 PM50 °FPartly cloudy.25 mph76%29.71 "HgN/A
6:50 PM50 °FPartly cloudy.24 mph76%29.71 "HgN/A
6:20 PM50 °FPartly cloudy.28 mph76%29.71 "HgN/A
Weather by CustomWeather, © 2015

See weather overviewHow to use our weather pages